Regional Weather Roundup
Issued by NWS Portland, ME

Home | Current Version | Previous Version | Text Only | Print | Product List | Glossary On
Versions: 1 2 3 4 5 6 7 8 9 10 11 12 13 14 15 16 17 18 19 20 21 22 23 24 25 26 27 28 29 30 31 32 33 34 35 36 37 38 39 40 41 42 43 44 45 46 47 48 49 50
000
ASUS41 KGYX 300010
RWRGYX
WEATHER ROUNDUP FOR MAINE AND NEW HAMPSHIRE
NATIONAL WEATHER SERVICE GRAY ME
800 PM EDT MON JUN 29 2015

MEZ002-005-006-010-012-015-018-020-021-024-026-027-029-300100-
MAINE

CITY           SKY/WX    TMP DP  RH WIND       PRES   REMARKS
PORTLAND       MOCLDY    64  59  83 CALM      29.86R
6HR MIN TEMP:  63; 6HR MAX TEMP:  69;

SANFORD        MOCLDY    64  59  82 S3        29.88R
BAR HARBOR     CLEAR     55  55 100 S7        29.87R
WISCASSET      PTCLDY    61  57  87 S3        29.88R
6HR MIN TEMP:  61; 6HR MAX TEMP:  69;

ROCKLAND       CLEAR     59  54  82 SW6       29.86R
FRYEBURG       CLOUDY    66  61  84 CALM      29.87R
6HR MIN TEMP:  66; 6HR MAX TEMP:  73;

LEWISTONAUBURN CLOUDY    64  57  77 E3        29.87R
AUGUSTA        CLOUDY    64  57  78 S6        29.87R
6HR MIN TEMP:  64; 6HR MAX TEMP:  69;

BANGOR         LGT RAIN  63  57  81 S7        29.85R
6HR MIN TEMP:  63; 6HR MAX TEMP:  69; 6HR PCP: TRACE;

GREENVILLE       N/A     57  51  80 CALM      29.84R
6HR MIN TEMP:  57; 6HR MAX TEMP:  62; 6HR PCP:  0.01;

MILLINOCKET    CLOUDY    65  54  67 NW5       29.84R
6HR MIN TEMP:  64; 6HR MAX TEMP:  66; 6HR PCP: TRACE;

HOULTON        CLOUDY    62  55  77 S5        29.81R
6HR MIN TEMP:  62; 6HR MAX TEMP:  67;

PRESQUE ISLE   PTCLDY    61  50  67 SW6       29.80S
6HR MIN TEMP:  61; 6HR MAX TEMP:  63; 6HR PCP:  0.01;

FRENCHVILLE    LGT RAIN  56  54  93 SW3       29.79R
6HR MIN TEMP:  56; 6HR MAX TEMP:  62; 6HR PCP:  0.04;

CARIBOU        PTCLDY    58  55  90 SW3       29.79R
6HR MIN TEMP:  58; 6HR MAX TEMP:  63; 6HR PCP:  0.04;

$$

NHZ002-005-008-009-011-012-014-300100-
NEW HAMPSHIRE

CITY           SKY/WX    TMP DP  RH WIND       PRES   REMARKS
PORTSMOUTH     PTCLDY    63  59  85 SE6       29.86R
ROCHESTER      PTCLDY    66  60  81 CALM      29.87R
6HR MIN TEMP:  66; 6HR MAX TEMP:  74;

NASHUA         MOCLDY    71  59  66 CALM      29.88R
MANCHESTER     MOCLDY    71  59  65 SW5       29.86R
6HR MIN TEMP:  68; 6HR MAX TEMP:  73; 6HR PCP:  0.02;

CONCORD        CLOUDY    70  57  63 W6        29.88R
6HR MIN TEMP:  68; 6HR MAX TEMP:  73;

LACONIA        CLOUDY    64  57  77 SW6       29.87R
PLYMOUTH       LGT RAIN  63  63 100 CALM      29.89R
BERLIN         CLOUDY    63  54  72 CALM      29.88R
6HR MIN TEMP:  63; 6HR MAX TEMP:  68; 6HR PCP: TRACE;

WHITEFIELD     CLOUDY    63  57  81 CALM      29.88R
6HR MIN TEMP:  63; 6HR MAX TEMP:  69; 6HR PCP: TRACE;

JAFFREY        CLOUDY    66  57  72 SW8       29.91R
6HR MIN TEMP:  66; 6HR MAX TEMP:  71;

KEENE          PTCLDY    70  55  60 SW6       29.89R
LEBANON        CLOUDY    65  59  81 CALM      29.88R
6HR MIN TEMP:  65; 6HR MAX TEMP:  72; 6HR PCP: TRACE;

MT WASHINGTON  DRZL/FOG  43  43 100 W24         N/A  VSB 1/16
6HR MIN TEMP:  41; 6HR MAX TEMP:  45; 6HR PCP:  0.07;

$$

VTZ005-007-008-300100-
VERMONT

CITY           SKY/WX    TMP DP  RH WIND       PRES   REMARKS
ST JOHNSBURY     N/A     66  52  60 MISG      29.86R
MONTPELIER     CLOUDY    61  55  81 CALM      29.93R
BURLINGTON     LGT RAIN  64  56  75 NW6       29.88R
$$

MAZ007-012-024-CTZ003-RIZ002-NYZ038-NYZ072-300100-
SOUTHERN NEW ENGLAND AND NY

CITY           SKY/WX    TMP DP  RH WIND       PRES   REMARKS
BOSTON         MOCLDY    71  61  70 SW9       29.88R
WORCESTER      MOCLDY    67  58  72 W6        29.92R
NANTUCKET      MOCLDY    65  60  84 SW12      29.94R
PROVIDENCE     PTCLDY    72  59  63 SW5       29.91R
HARTFORD       PTCLDY    72  58  61 W5        29.89R
ALBANY         MOCLDY    68  57  68 W5        29.91R
NEW YORK CITY  PTCLDY    77  54  44 W8        29.90F
$$

ANZ081-ANZ082-ANZ150-NHZ014-MEZ023>029-300100-
COASTAL MARINE OBSERVATIONS

STATION/POSITION TIME  TEMP    WIND        PRES    WAVE
                       AIR SEA DIR/SP/G            HT/PER
                 (UTC) (F)     (DEG/KT/KT) (MB)    (FT/S)
MOUNT DESERT ROC 0000   54     200/ 13/ 13 1011.8R
MATINICUS ROCK   0000   54     210/ 12/ 12 1011.6R
ISLE OF SHOALS   0000   60     160/ 14/ 15 1010.9R
JEFFREYS LEDGE   2303      57                N/A     5/10
CASHES LEDGE BUO 2350   57 56              1011.7R   5/10
GEORGES BANK BUO 2350   61 58  220/  8/  8 1014.8R   7/ 8
$$

.............KEY..............
   WCI - WIND CHILL
   TC  - TEMPERATURE IN CELSIUS
   VSB - VISIBILITY IN MILES
   HX  - HEAT INDEX
   FAIR- INDICATES FEW OR NO CLOUDS BELOW 12,000 FT, WITH NO
         SIGNIFICANT WEATHER AND/OR OBSTRUCTIONS TO VISIBILITY.





USA.gov is the U.S. government's official web portal to all federal, state and local government web resources and services.